sat.trackr.live / text

‹ back to catalog

STARLINK-2170

NORAD 47753 · 2021-017AH

PAYLOAD ACTIVE UNKNOWN

§ Identity

Operator
Country
US
Launch date
2021-03-04
Launch site
AFETR
Launch vehicle
Mass (kg)
RCS (m²)

Purposes: comms

External: N2YO · Heavens-Above · Gunter

§ Orbital elements

Epoch: 2026-09-11T17:53:51.509184Z

Period
93.88 min
Inclination
53.1595°
Eccentricity
0.0000720
Mean motion
15.33859436 rev/d
Perigee alt
463.8 km
Apogee alt
464.8 km
Semi-major
6,842.4 km
B*
1.0992e-3
RAAN
57.8127°
Arg perigee
296.1392°
Mean anomaly
63.9536°
Rev number
30,640

§ Raw data

STARLINK-21701 47753U 21017AH  26254.74573506  .00036308  00000+0  10992-2 0  99952 47753  53.1595  57.8127 0000720 296.1392  63.9536 15.33859436306409

JSON: /api/v1/satellites/47753 · /tle

For live sub-satellite position, see the globe view (requires WebGL).

§ Visibility from observer

Set your observer location to see the next 7 days of passes ≥ 10°. The values pass through the URL so the page stays shareable.

No JS? Fill the form by hand. The geolocation button needs JavaScript.